Location: LDNL
(36.4545°S, 141.6685°E)
Time: 08:19:33
(UTC+10:00)

X-37B - Pass Details

Date: 01 July 2022
Orbit: 328 x 343 km, 45.0° (Epoch: 12 August)

Event Time Altitude Azimuth Distance (km) Brightness Sun altitude
Rises 07:12:24 0° 326° (NW) 2,130 4.2 -6.9°
Reaches altitude 10° 07:14:35 10° 339° (NNW) 1,297 3.3 -6.5°
Maximum altitude 07:17:04 25° 38° (NE) 741 2.9 -6.0°
Drops below altitude 10° 07:19:34 10° 97° (E) 1,307 4.3 -5.6°
Sets 07:21:47 0° 110° (ESE) 2,152 5.1 -5.2°
